Temp
18 18 18 17 17 17 16 15 15 15 15 15 15 15 15 15 15 15 15 15 15 15 15 15 15 15 15 14 14 14 14 14 14 14 14 15 15 15 15 14 15 15
17 18 18 17 17 17 17 16 15 15 15 15 15 15 15 15 15 15 15 15 15 15 15 16 16 16 16 15 15 15 15 15 14 14 14 14 14 15 15 15 15 15
17 17 18 18 18 17 16 16 15 15 15 15 15 15 15 15 15 15 15 15 15 15 15 15 15 16 16 16 15 15 15 15 15 14 14 14 14 15 14 14 14 14
17 17 18 17 18 17 16 16 16 15 15 15 16 15 15 15 15 15 15 14 14 14 15 15 15 15 15 15 15 16 15 15 15 14 14 14 14 14 14 14 14 14
17 17 17 17 17 17 16 16 16 16 16 16 16 16 15 15 15 15 15 15 15 15 14 14 14 15 15 15 15 15 15 15 14 14 14 14 14 14 14 14 14 13
17 17 17 17 17 17 17 17 17 17 17 16 16 16 16 16 15 15 15 15 15 15 15 15 15 14 15 15 15 15 15 15 14 14 14 14 14 14 14 14 14 14
16 16 17 17 17 17 17 17 17 17 17 17 17 16 16 16 16 15 15 15 15 15 15 15 15 14 14 14 15 15 14 15 14 14 14 14 14 13 13 13 13 13
16 16 16 16 16 17 17 17 17 17 17 17 17 17 16 16 16 16 15 15 15 15 15 15 15 15 14 14 14 15 14 14 14 14 14 14 14 14 13 13 13 13
16 16 16 16 16 16 17 17 17 17 17 17 17 17 16 16 16 16 16 16 15 15 15 15 15 15 15 15 15 15 14 14 14 14 14 14 14 14 14 13 13 13
15 16 15 15 16 16 17 17 17 17 17 18 17 17 17 17 16 16 16 16 15 15 15 15 15 15 14 14 14 14 14 14 14 14 14 14 14 14 14 14 14 13
14 15 15 15 15 16 17 17 17 16 17 18 17 17 17 17 16 16 16 16 15 15 15 15 15 15 14 14 14 14 14 14 14 14 14 14 14 14 14 14 14 14
14 15 15 15 15 16 17 17 17 16 17 17 17 17 17 17 16 16 16 16 16 15 15 14 15 15 15 15 15 14 14 14 13 14 14 14 14 14 14 14 14 14
14 15 15 15 16 16 17 17 17 16 16 16 16 17 17 17 16 16 15 15 15 15 15 15 15 15 15 15 15 15 14 14 13 13 14 14 14 14 14 14 14 14
15 15 16 16 16 16 16 16 16 16 16 16 16 16 16 16 16 16 15 15 15 15 15 15 14 14 14 14 15 15 14 14 13 13 13 13 14 14 14 14 14 13
15 15 15 15 15 15 15 15 15 15 15 15 15 15 15 15 15 15 15 15 15 15 15 14 13 13 14 14 14 14 14 14 13 13 13 13 14 14 14 14 14 13
14 14 14 14 14 14 14 15 15 15 15 15 15 15 15 14 15 15 15 15 14 14 14 13 13 13 14 14 14 14 14 14 13 12 13 13 13 14 14 14 14 13
14 14 14 14 14 14 14 14 15 15 15 15 15 15 14 14 14 14 15 15 14 14 14 14 14 14 14 14 14 13 13 13 13 13 13 13 13 13 13 14 14 13
14 14 14 14 14 14 14 14 14 14 14 14 14 14 13 13 14 14 15 14 14 14 14 14 14 14 14 14 14 13 13 13 13 13 13 13 13 13 13 13 13 13
14 14 14 14 14 14 14 14 14 14 13 14 13 13 13 13 14 14 15 14 14 14 14 14 14 14 14 14 13 13 13 13 13 13 13 13 13 13 13 13 13 13
14 14 14 14 14 13 13 13 13 13 13 14 13 13 13 13 14 14 14 14 14 14 14 14 14 14 14 14 14 14 13 13 13 13 13 13 13 13 13 13 12 12
15 14 14 14 14 13 13 13 13 13 14 14 14 13 13 13 13 13 13 13 13 13 14 14 14 14 14 14 14 14 14 14 14 13 13 13 13 13 13 12 12 12
15 15 15 14 14 14 14 14 14 14 14 14 14 14 13 13 13 13 13 14 14 14 14 14 14 14 14 14 14 14 14 14 13 13 13 13 13 12 12 12 12 12
15 15 15 15 14 14 14 14 14 14 14 14 14 14 13 13 14 14 14 14 14 14 14 14 14 14 14 14 14 14 13 13 13 13 13 13 13 12 11 11 11 11
14 15 15 15 15 15 15 14 14 14 14 14 14 14 14 14 14 14 14 14 14 14 14 14 14 14 14 14 14 14 13 13 13 13 13 13 12 11 11 10 10 10
13 14 15 15 15 15 15 14 14 14 14 14 14 14 14 14 14 14 14 14 14 14 14 14 14 14 14 14 14 14 13 13 12 12 12 12 12 11 10 10 10 10
13 14 14 14 14 14 14 14 14 14 14 14 14 14 14 14 13 14 14 13 13 13 13 13 13 13 13 13 13 13 13 12 12 12 12 12 11 10 10 10 9 9
Height
815 817 819 820 821 823 826 827 829 830 829 829 829 830 830 831 832 832 833 833 834 834 834 834 833 833 833 834 835 835 836 836 836 837 838 838 839 840 840 841 841 841
812 815 818 820 821 822 824 826 829 829 829 829 829 830 831 831 832 832 833 834 834 835 835 835 835 834 834 835 835 836 836 837 837 838 839 839 840 841 841 842 842 843
811 813 816 818 820 822 823 825 828 828 829 829 829 831 831 832 833 833 834 835 835 836 836 836 836 836 836 836 837 837 837 838 838 839 840 840 841 842 842 843 844 844
810 812 814 816 819 822 824 825 827 827 828 829 829 830 831 832 834 834 835 836 836 837 837 838 838 838 838 839 839 839 839 839 840 840 841 841 842 843 843 844 845 845
810 812 814 816 819 821 823 824 825 826 827 828 829 830 831 832 834 834 835 836 837 838 839 839 839 840 840 841 841 841 841 842 842 843 843 843 844 845 845 845 846 846
810 811 813 816 818 820 822 822 823 824 826 827 828 829 830 832 833 834 835 836 837 838 839 840 840 841 841 842 842 843 843 844 844 845 845 846 846 847 847 847 848 848
809 811 812 815 817 818 820 821 822 823 824 826 827 828 830 831 833 834 835 836 836 837 838 839 840 841 842 843 843 844 845 845 846 846 847 847 848 848 849 849 850 850
808 810 812 814 816 817 819 819 820 821 823 824 826 827 829 830 832 833 834 835 836 836 838 838 840 841 842 843 844 844 845 846 846 847 847 848 848 849 850 850 851 851
808 810 811 812 814 815 817 818 819 820 822 823 825 827 829 830 831 832 833 834 836 836 837 838 839 840 841 842 843 844 845 845 846 847 847 848 849 849 850 850 851 851
807 809 810 811 812 814 815 817 818 820 821 822 824 826 828 829 830 832 833 834 835 836 837 838 839 840 841 842 843 844 845 845 845 846 846 847 848 848 849 850 851 851
807 808 809 810 811 813 814 816 818 819 821 822 824 825 827 828 830 831 832 833 835 836 837 838 838 839 840 841 842 844 845 846 846 846 846 846 846 847 848 849 850 850
806 807 808 810 811 812 814 816 818 819 820 821 822 824 825 826 828 829 831 832 834 835 836 837 838 838 839 840 840 841 842 844 846 846 846 845 846 846 847 847 848 849
805 806 808 809 811 812 814 816 817 818 819 820 821 822 823 824 826 827 829 830 832 834 835 836 837 838 838 839 838 838 839 841 843 845 845 845 845 845 845 846 846 847
804 806 807 808 810 812 814 815 816 817 818 818 819 820 821 823 824 826 827 829 831 832 833 834 835 836 837 838 838 838 838 839 841 843 844 844 843 843 843 844 845 845
804 805 806 808 809 811 813 814 814 815 817 817 818 819 820 821 823 824 825 826 828 830 831 833 835 836 837 838 837 837 837 837 839 841 842 842 841 841 841 842 842 843
804 805 806 807 809 810 812 812 813 815 816 816 817 818 818 820 821 822 823 824 826 828 830 832 834 835 835 836 836 836 836 836 837 838 839 839 839 839 839 839 839 840
804 804 805 806 808 809 810 811 812 814 814 815 816 817 818 818 819 820 821 821 824 828 829 830 831 832 833 834 834 834 835 835 835 836 836 836 836 836 837 837 837 837
803 804 805 806 807 809 809 810 811 812 813 814 815 816 818 819 818 818 819 820 823 826 828 828 828 829 830 831 832 832 833 833 833 833 833 833 833 834 834 834 835 835
802 804 805 805 807 808 808 809 810 811 812 813 814 815 817 817 817 817 818 820 822 824 825 825 826 827 828 829 829 830 830 831 831 831 831 831 831 831 832 832 833 833
801 802 803 804 805 806 807 808 808 809 810 811 812 813 814 815 816 817 819 820 821 822 823 824 824 825 826 827 827 828 828 829 829 829 829 829 829 830 830 830 830 831
800 801 802 803 804 805 806 806 806 807 808 809 810 811 813 814 816 818 819 820 821 821 822 822 823 824 825 825 826 826 827 827 828 828 828 828 828 828 828 828 828 829
800 800 801 802 803 804 805 805 806 806 807 808 809 811 812 814 815 817 818 819 820 820 821 822 822 822 823 824 824 825 825 826 826 826 827 827 827 827 827 827 827 827
800 800 801 802 803 803 804 805 806 806 807 808 809 810 812 813 815 816 817 818 819 819 820 821 821 821 822 822 823 823 824 825 825 825 826 826 825 825 826 826 826 827
802 801 801 801 802 803 804 805 806 807 808 809 810 811 812 813 814 815 816 817 818 818 819 820 820 820 821 821 821 822 822 823 823 824 824 824 825 825 825 825 826 827
804 803 802 802 803 804 805 806 807 807 808 809 809 810 811 812 813 814 815 816 817 817 818 818 819 819 819 820 820 821 821 822 822 823 823 823 824 825 825 826 827 828
805 804 803 803 803 804 805 806 806 807 808 808 809 810 811 812 812 813 813 814 815 816 817 817 817 818 818 819 819 819 820 820 821 822 822 823 824 825 826 827 828 829
Wind_Speed
11 8 5 5 5 3 7 10 9 8 6 5 5 7 7 7 5 4 2 1 3 5 6 6 7 8 9 10 9 9 8 8 9 9 9 9 9 9 9 9 8 8
15 12 9 8 9 9 10 12 10 8 5 3 5 6 7 6 5 3 2 2 3 4 5 6 7 7 8 8 7 7 7 8 9 9 8 9 9 8 9 9 9 9
18 15 13 14 14 13 13 14 11 8 5 3 3 5 6 6 5 4 3 2 2 2 3 4 5 5 6 6 6 5 6 7 9 9 8 9 9 9 11 11 11 12
19 16 18 19 16 15 15 13 10 8 6 4 4 4 6 7 7 5 4 3 2 1 2 3 3 3 4 5 5 5 6 7 8 8 8 10 9 10 11 12 12 13
21 18 20 20 16 16 16 13 9 8 7 6 5 5 6 7 8 7 6 5 4 3 1 1 1 2 3 3 4 4 5 6 7 6 7 9 9 9 10 11 12 12
22 20 22 20 18 19 17 14 11 9 7 7 6 6 6 7 8 9 8 7 6 6 4 3 2 2 2 2 3 3 4 5 5 5 5 7 8 8 9 9 10 11
24 22 22 20 21 21 18 15 14 12 10 8 7 7 7 7 8 9 9 8 8 8 7 6 5 4 3 3 3 3 3 4 5 5 4 5 6 7 7 6 7 8
24 21 19 20 23 24 20 18 18 15 12 11 9 8 8 8 9 9 9 9 8 9 9 9 8 7 6 5 5 5 4 4 5 5 5 5 5 5 6 5 4 5
24 20 19 21 26 26 22 19 19 17 14 14 12 10 10 10 9 10 10 10 9 9 10 10 10 9 8 8 7 7 7 6 6 6 5 5 5 5 5 6 5 4
22 20 21 24 27 28 24 20 20 19 17 17 15 13 13 13 12 11 11 11 12 12 11 12 12 12 11 10 10 10 9 9 8 7 7 7 6 6 6 6 6 5
21 20 22 25 28 29 26 23 21 20 19 19 16 14 15 14 15 14 14 14 14 14 14 14 13 13 13 12 11 12 12 13 12 11 9 9 8 8 8 8 8 7
21 20 21 24 27 28 27 24 23 22 21 19 17 15 15 15 16 17 17 17 17 17 17 16 15 14 13 13 13 12 13 15 17 16 14 12 11 11 10 10 10 10
22 22 22 23 25 27 27 25 25 25 22 20 18 16 16 17 17 18 19 19 18 18 18 18 17 16 15 14 14 13 14 15 17 19 18 16 13 13 13 13 13 13
23 22 23 24 26 26 26 26 26 25 23 20 18 17 18 18 17 18 19 19 18 19 21 21 19 19 18 16 15 16 16 16 17 19 21 19 16 15 16 16 16 15
22 22 23 23 23 23 23 24 25 24 22 20 18 17 17 16 16 16 16 17 18 21 21 18 15 16 17 18 19 19 19 19 18 19 21 20 19 18 17 18 18 18
18 19 20 20 19 19 19 21 22 22 21 19 17 16 15 14 15 14 13 15 16 18 17 13 13 15 14 18 23 22 21 21 20 21 21 19 19 18 18 19 20 20
17 18 18 19 17 16 16 17 18 18 19 18 18 17 14 13 14 15 16 17 15 15 15 14 17 19 17 19 21 19 19 19 19 20 19 17 17 17 17 19 20 21
18 19 19 20 19 17 17 17 17 16 16 16 17 16 11 12 16 18 21 21 18 17 18 17 17 18 17 16 14 13 14 16 16 17 17 17 17 16 16 17 18 19
14 16 18 19 19 18 17 18 18 17 16 16 16 13 10 14 19 20 21 22 21 19 18 16 14 13 11 9 8 8 9 10 11 12 12 13 13 14 15 15 16 17
11 13 14 15 16 15 15 15 15 14 12 12 13 11 11 15 18 19 19 18 16 14 12 11 10 8 7 6 5 4 4 4 5 6 7 9 10 12 14 15 15 16
9 11 11 12 12 12 11 11 11 10 9 9 9 9 11 13 15 15 14 11 9 8 7 6 6 5 5 5 5 4 4 3 4 5 6 8 9 11 13 14 15 15
8 10 11 11 10 10 10 9 8 7 8 10 10 10 10 10 10 9 7 7 6 5 4 3 3 3 4 5 5 5 5 5 5 5 6 7 8 10 11 12 12 12
6 7 9 10 10 10 9 9 10 12 13 14 14 14 13 12 11 10 8 6 5 4 2 1 1 2 3 4 4 5 5 6 6 6 6 7 7 7 7 7 8 8
10 7 7 9 10 10 11 13 15 15 14 13 13 13 13 12 11 10 8 6 4 2 1 1 2 2 3 4 5 5 5 6 6 6 5 5 5 4 4 4 4 4
12 10 7 8 10 11 13 14 14 13 12 11 10 9 10 11 9 9 8 6 5 5 5 5 5 5 4 5 5 5 5 5 5 6 5 4 3 3 2 3 4 5
11 9 8 10 12 12 12 12 11 11 10 9 7 7 9 9 8 6 5 5 6 7 9 9 8 7 6 6 5 5 5 5 6 6 6 5 5 5 5 6 8 8
Wind_Direction
192 191 218 224 168 168 252 238 213 202 193 170 170 171 170 174 169 163 158 143 151 142 135 131 123 125 131 134 138 137 132 124 117 115 114 110 106 104 105 104 103 104
185 193 221 222 190 192 231 234 224 220 213 184 173 176 180 187 189 192 194 155 146 130 116 112 110 112 118 131 140 140 137 130 122 123 121 113 111 109 108 108 106 107
188 193 208 214 210 219 229 224 223 227 224 209 190 188 192 196 200 206 204 181 139 112 103 96 99 104 105 115 127 130 132 128 125 128 125 117 115 111 109 108 108 107
196 199 209 214 220 231 228 219 225 235 233 227 215 210 206 204 206 208 206 202 197 136 97 87 86 100 108 111 118 124 129 129 130 134 131 126 124 114 109 111 111 110
202 204 212 217 223 226 219 214 220 228 233 234 229 230 223 214 210 208 209 212 216 223 204 126 97 102 118 120 115 118 125 128 131 138 135 130 129 120 113 116 119 117
205 208 212 218 224 220 214 214 211 210 221 230 232 238 235 225 218 213 213 219 224 228 228 219 206 188 168 158 143 127 127 129 130 136 136 130 129 125 118 117 121 123
207 208 210 216 219 214 212 215 209 203 207 212 219 234 240 238 230 222 218 220 226 230 232 230 222 218 217 208 200 186 165 154 149 150 150 144 141 137 132 124 118 121
209 211 214 218 215 211 212 216 211 203 201 205 210 221 236 243 240 233 228 227 229 233 236 238 234 229 230 231 228 222 213 201 185 178 178 175 169 163 160 158 146 134
215 221 224 220 214 210 212 217 215 206 203 211 214 218 230 241 243 240 239 240 241 242 242 244 242 239 240 243 242 239 234 230 223 215 209 203 196 192 188 190 191 180
222 227 226 220 214 211 212 217 216 208 207 214 218 222 229 239 246 247 248 249 249 250 251 250 247 244 247 250 253 256 254 251 246 239 234 228 221 220 219 218 218 210
223 224 223 219 215 212 214 217 215 213 213 216 219 223 229 239 246 249 253 255 255 255 254 253 250 247 248 251 256 263 267 270 266 259 254 249 243 240 239 238 238 234
221 219 223 222 218 216 218 219 217 217 220 222 223 225 228 235 242 247 250 252 255 257 256 255 255 254 255 255 257 261 265 269 270 267 263 260 257 256 253 252 251 246
223 223 227 226 222 220 221 221 219 219 224 231 230 228 231 234 238 244 247 249 253 256 257 258 256 257 260 258 259 261 261 262 266 268 266 264 264 265 262 260 258 253
224 226 229 228 225 223 221 220 219 219 225 232 232 232 235 236 240 245 248 251 256 260 262 264 263 262 263 265 268 268 266 266 268 269 266 264 266 267 266 264 261 258
224 225 227 227 226 224 221 219 219 221 225 230 234 237 238 238 242 247 253 257 261 264 264 267 277 280 278 278 277 273 273 275 275 269 263 263 265 266 268 270 266 263
225 224 224 224 223 222 222 223 223 225 229 232 236 239 239 240 240 246 258 262 262 264 263 272 288 285 277 275 275 275 278 279 277 270 264 264 266 266 270 275 273 271
227 229 227 224 220 216 218 222 224 226 230 234 237 235 236 242 245 251 261 261 260 260 259 267 273 264 256 263 270 275 280 279 275 272 270 272 272 272 276 278 279 279
229 232 233 231 228 226 226 226 226 226 228 235 239 233 234 252 257 258 259 256 256 257 255 257 261 257 255 261 267 273 278 277 273 272 272 273 272 273 275 275 278 282
237 235 236 238 238 237 234 230 230 232 233 241 245 239 238 250 251 252 255 254 254 257 257 257 257 255 254 255 258 266 271 270 269 269 271 272 272 272 273 273 277 280
247 245 244 248 249 244 236 231 233 237 238 243 246 238 231 234 234 238 247 250 249 249 249 248 244 237 234 233 233 241 251 263 274 277 277 274 271 270 271 272 274 275
250 250 249 253 256 251 243 238 241 243 234 225 224 218 215 218 219 224 230 228 222 223 223 220 218 218 223 226 223 226 240 265 285 287 286 281 272 266 266 267 270 273
259 253 250 249 250 250 247 241 233 216 189 175 168 165 168 176 179 180 176 171 173 183 184 187 206 222 227 229 230 238 251 263 274 286 293 290 279 270 266 265 269 273
305 264 246 238 238 237 228 205 178 159 149 144 141 139 140 140 138 134 129 131 135 133 133 152 233 251 252 253 253 257 265 269 271 278 285 289 289 282 273 267 265 267
339 308 252 231 227 215 189 170 160 153 150 148 143 140 140 138 135 130 124 117 105 82 40 346 321 303 291 286 281 279 279 276 274 274 272 279 289 291 285 271 251 239
322 307 255 216 206 194 179 171 168 165 161 157 151 146 145 142 135 128 118 102 74 42 20 1 342 327 315 303 295 289 281 273 270 266 257 251 255 250 235 210 187 173
296 290 250 213 201 196 190 186 181 174 167 162 156 152 150 145 137 129 114 85 53 30 16 5 354 341 324 312 307 298 280 265 258 253 240 222 209 200 187 175 169 164